EW2500 Weather Reports


Display with metric or nautical units.
time (UTC)temp
F
wind
direction
speed
MPH
gust
MPH
rain 1hr
in
rain 24hr
in
rain mn
in
humidity
%
barometer
mb
20260506131539 62 258 0.0 5.0 0.00 0.00 0.00 83 1007.2
20260506131113 62 350 0.0 5.0 0.00 0.00 0.00 83 1007.1
20260506130601 62 75 0.0 2.0 0.00 0.00 0.00 84 1007.1
20260506130052 62 85 0.0 2.0 0.00 0.00 0.00 84 1007.3
20260506125543 62 282 0.0 1.0 0.00 0.00 0.00 84 1007.2
20260506125116 62 277 0.0 1.0 0.00 0.00 0.00 84 1007.2
20260506124546 62 269 0.0 1.0 0.00 0.00 0.00 84 1007.2
20260506124057 62 273 0.0 1.0 0.00 0.00 0.00 84 1007.4
20260506123550 61 70 0.0 1.0 0.00 0.00 0.00 85 1007.3
20260506123042 61 100 0.0 1.0 0.00 0.00 0.00 86 1007.5
20260506122553 61 108 0.0 4.0 0.00 0.00 0.00 86 1007.6
20260506122046 61 79 0.0 5.0 0.00 0.00 0.00 86 1007.7
20260506121557 60 299 1.0 5.0 0.00 0.00 0.00 86 1007.8
20260506121050 60 217 0.0 2.0 0.00 0.00 0.00 87 1007.9
20260506120542 60 36 0.0 2.0 0.00 0.00 0.00 87 1007.8
20260506120115 59 123 0.0 1.0 0.00 0.00 0.00 88 1007.8
20260506115607 59 275 0.0 6.0 0.00 0.00 0.00 88 1007.7
20260506115058 59 125 0.0 6.0 0.00 0.00 0.00 89 1007.8
20260506114548 59 165 0.0 1.0 0.00 0.00 0.00 90 1007.8
20260506114040 58 77 0.0 1.0 0.00 0.00 0.00 91 1007.7
20260506113553 58 5 0.0 1.0 0.00 0.00 0.00 91 1007.5
20260506113044 57 309 0.0 2.0 0.00 0.00 0.00 92 1007.5
20260506112559 57 157 0.0 2.0 0.00 0.00 0.00 92 1007.6
20260506112050 57 138 0.0 0.0 0.00 0.00 0.00 92 1007.6
20260506111543 56 136 0.0 0.0 0.00 0.00 0.00 93 1007.8
20260506111051 56 134 0.0 0.0 0.00 0.00 0.00 93 1007.9
20260506110542 56 225 0.0 0.0 0.00 0.00 0.00 93 1007.9
20260506110057 56 104 0.0 0.0 0.00 0.00 0.00 93 1007.8
20260506105549 55 104 0.0 0.0 0.00 0.00 0.00 93 1007.8
20260506105042 55 104 0.0 1.0 0.00 0.00 0.00 93 1007.9
20260506104556 55 104 0.0 1.0 0.00 0.00 0.00 93 1007.9
20260506104048 55 101 0.0 0.0 0.00 0.00 0.00 93 1007.8
20260506103602 55 101 0.0 0.0 0.00 0.00 0.00 93 1007.8
20260506103054 55 101 0.0 0.0 0.00 0.00 0.00 93 1007.7
20260506102543 54 101 0.0 0.0 0.00 0.00 0.00 93 1007.7
20260506102058 54 101 0.0 0.0 0.00 0.00 0.00 92 1007.6
20260506101552 54 101 0.0 0.0 0.00 0.00 0.00 92 1007.7
20260506101042 54 101 0.0 0.0 0.00 0.00 0.00 92 1007.7
20260506100555 54 101 0.0 0.0 0.00 0.00 0.00 92 1007.8
20260506100048 54 101 0.0 0.0 0.00 0.00 0.00 92 1007.6
20260506095541 54 101 0.0 0.0 0.00 0.00 0.00 92 1007.6
20260506095054 54 101 0.0 0.0 0.00 0.00 0.00 92 1007.5
20260506094546 54 101 0.0 0.0 0.00 0.00 0.00 92 1007.5
20260506094100 54 101 0.0 0.0 0.00 0.00 0.00 92 1007.6
20260506093551 54 101 0.0 0.0 0.00 0.00 0.00 92 1007.6
20260506093042 54 101 0.0 0.0 0.00 0.00 0.00 92 1007.5
20260506092554 54 101 0.0 0.0 0.00 0.00 0.00 91 1007.5
20260506092045 54 101 0.0 0.0 0.00 0.00 0.00 91 1007.5
20260506091558 54 101 0.0 0.0 0.00 0.00 0.00 91 1007.6
20260506091051 54 101 0.0 0.0 0.00 0.00 0.00 91 1007.6
20260506090543 54 101 0.0 0.0 0.00 0.00 0.00 91 1007.6
20260506090117 55 101 0.0 0.0 0.00 0.00 0.00 91 1007.6
20260506085545 55 101 0.0 0.0 0.00 0.00 0.00 91 1007.7
20260506085117 55 100 0.0 0.0 0.00 0.00 0.00 91 1007.7
20260506084548 55 101 0.0 0.0 0.00 0.00 0.00 91 1007.7
20260506084041 55 101 0.0 0.0 0.00 0.00 0.00 90 1007.7
20260506083553 55 101 0.0 0.0 0.00 0.00 0.00 90 1007.8
20260506083046 55 101 0.0 0.0 0.00 0.00 0.00 90 1007.8
20260506082539 55 101 0.0 0.0 0.00 0.00 0.00 90 1007.8
20260506082053 55 101 0.0 0.0 0.00 0.00 0.00 90 1007.8
20260506081605 55 101 0.0 0.0 0.00 0.00 0.00 90 1007.9
20260506081057 55 101 0.0 0.0 0.00 0.00 0.00 89 1007.8
20260506080548 55 101 0.0 0.0 0.00 0.00 0.00 89 1007.7
20260506073120 56 82 0.0 0.0 0.00 0.00 0.00 88 1008.0
20260506072549 56 81 0.0 0.0 0.00 0.00 0.00 88 1008.0
20260506072041 56 80 0.0 0.0 0.00 0.00 0.00 88 1008.0
20260506071556 56 80 0.0 0.0 0.00 0.00 0.00 88 1007.9
20260506071048 56 80 0.0 0.0 0.00 0.00 0.00 87 1007.9
20260506070541 57 80 0.0 0.0 0.00 0.00 0.00 87 1007.9
20260506062105 58 116 0.0 0.0 0.00 0.00 0.00 85 1007.9
20260506061556 58 207 0.0 1.0 0.00 0.00 0.00 85 1007.9
20260506061045 58 207 0.0 1.0 0.00 0.00 0.00 85 1007.9
20260506060559 58 86 0.0 1.0 0.00 0.00 0.00 85 1007.9
20260506060111 58 130 0.0 2.0 0.00 0.00 0.00 84 1007.9
20260506051048 59 44 0.0 0.0 0.00 0.00 0.00 81 1008.2
20260506050601 59 42 0.0 0.0 0.00 0.00 0.00 81 1008.3
20260506045057 60 42 0.0 1.0 0.00 0.00 0.00 80 1008.4
20260506044549 60 155 0.0 1.0 0.00 0.00 0.00 80 1008.4
20260506044041 60 123 0.0 1.0 0.00 0.00 0.00 80 1008.4
20260506043553 60 126 0.0 0.0 0.00 0.00 0.00 79 1008.4
20260506043043 60 126 0.0 0.0 0.00 0.00 0.00 79 1008.3
20260506042554 60 126 0.0 0.0 0.00 0.00 0.00 78 1008.3
20260506042048 60 128 0.0 0.0 0.00 0.00 0.00 78 1008.3
20260506041541 60 128 0.0 0.0 0.00 0.00 0.00 78 1008.3
20260506041053 60 161 0.0 0.0 0.00 0.00 0.00 78 1008.3
20260506040544 61 161 0.0 0.0 0.00 0.00 0.00 77 1008.3
20260506040056 61 161 0.0 0.0 0.00 0.00 0.00 77 1008.3
20260506035546 61 161 0.0 0.0 0.00 0.00 0.00 77 1008.3
20260506035058 61 344 0.0 0.0 0.00 0.00 0.00 76 1008.4
20260506034551 61 341 0.0 1.0 0.00 0.00 0.00 76 1008.3
20260506034041 61 290 0.0 1.0 0.00 0.00 0.00 76 1008.4
20260506033556 61 80 0.0 1.0 0.00 0.00 0.00 76 1008.4
20260506033109 61 71 0.0 2.0 0.00 0.00 0.00 76 1008.3
20260506032602 61 71 0.0 2.0 0.00 0.00 0.00 76 1008.3
20260506032053 61 121 0.0 0.0 0.00 0.00 0.00 75 1008.2
20260506031545 62 121 0.0 0.0 0.00 0.00 0.00 75 1008.2
20260506031116 62 121 0.0 0.0 0.00 0.00 0.00 75 1008.2
20260506030545 62 117 0.0 0.0 0.00 0.00 0.00 75 1008.3
20260506030057 62 117 0.0 0.0 0.00 0.00 0.00 75 1008.2
20260506025547 62 117 0.0 0.0 0.00 0.00 0.00 74 1008.2
20260506025059 62 118 0.0 0.0 0.00 0.00 0.00 74 1008.3
20260506024549 62 120 0.0 0.0 0.00 0.00 0.00 74 1008.2
20260506024041 62 121 0.0 0.0 0.00 0.00 0.00 74 1008.1
20260506023553 62 121 0.0 1.0 0.00 0.00 0.00 74 1008.1
20260506023043 62 146 0.0 1.0 0.00 0.00 0.00 73 1008.2
20260506022558 62 192 0.0 1.0 0.00 0.00 0.00 73 1008.2
20260506022049 63 219 0.0 0.0 0.00 0.00 0.00 73 1008.2
20260506021541 63 219 0.0 2.0 0.00 0.00 0.00 72 1008.2
20260506021116 63 222 0.0 2.0 0.00 0.00 0.00 72 1008.2
20260506020546 63 59 0.0 1.0 0.00 0.00 0.00 72 1008.1
20260506020059 63 44 0.0 1.0 0.00 0.00 0.00 72 1008.1
20260506015549 63 204 0.0 0.0 0.00 0.00 0.00 71 1008.1
20260506015101 63 98 0.0 0.0 0.00 0.00 0.00 70 1008.0
20260506014554 64 156 0.0 3.0 0.00 0.00 0.00 71 1007.9
20260506014047 64 157 0.0 3.0 0.00 0.00 0.00 70 1007.9
20260506013540 64 60 0.0 3.0 0.00 0.00 0.00 69 1007.8
20260506013052 64 55 0.0 3.0 0.00 0.00 0.00 69 1007.8
20260506012545 64 55 0.0 2.0 0.00 0.00 0.00 69 1007.7
20260506012059 65 19 0.0 2.0 0.00 0.00 0.00 69 1007.6
20260506011550 65 167 0.0 2.0 0.00 0.00 0.00 68 1007.6
20260506011042 65 130 0.0 3.0 0.00 0.00 0.00 68 1007.4
20260506010551 65 206 0.0 3.0 0.00 0.00 0.00 67 1007.4
20260506010045 65 119 0.0 1.0 0.00 0.00 0.00 67 1007.4
20260506005600 65 112 0.0 3.0 0.00 0.00 0.00 67 1007.4
20260506005052 65 138 0.0 6.0 0.00 0.00 0.00 67 1007.3
20260506004544 66 83 1.0 6.0 0.00 0.00 0.00 67 1007.2
20260506004055 66 150 0.0 4.0 0.00 0.00 0.00 67 1007.1
20260506003548 66 134 0.0 3.0 0.00 0.00 0.00 67 1007.1
20260506003102 66 78 0.0 1.0 0.00 0.00 0.00 66 1007.1
20260506002553 66 146 0.0 3.0 0.00 0.00 0.00 66 1006.9
20260506002043 66 131 0.0 3.0 0.00 0.00 0.00 66 1006.8
20260506001556 66 154 0.0 1.0 0.00 0.00 0.00 66 1006.8
20260506001046 67 154 0.0 1.0 0.00 0.00 0.00 65 1006.8
20260506000557 67 146 0.0 6.0 0.00 0.00 0.00 65 1006.8
20260506000049 67 148 0.0 6.0 0.00 0.00 0.00 64 1006.6
20260505235541 67 153 0.0 4.0 0.00 0.00 0.00 64 1006.6
20260505235054 68 157 1.0 4.0 0.00 0.00 0.00 63 1006.6
20260505234544 68 137 0.0 1.0 0.00 0.00 0.00 63 1006.5
20260505234056 68 250 0.0 0.0 0.00 0.00 0.00 63 1006.4
20260505233546 68 250 0.0 0.0 0.00 0.00 0.00 63 1006.4
20260505233059 68 302 0.0 0.0 0.00 0.00 0.00 62 1006.4
20260505232550 69 287 0.0 2.0 0.00 0.00 0.00 62 1006.3
20260505232041 69 304 0.0 6.0 0.00 0.00 0.00 61 1006.2
20260505231554 69 88 0.0 6.0 0.00 0.00 0.00 61 1006.1
20260505231107 69 191 1.0 9.0 0.00 0.00 0.00 60 1006.1
20260505230559 70 128 0.0 9.0 0.00 0.00 0.00 60 1006.0
20260505230049 70 107 1.0 7.0 0.00 0.00 0.00 59 1005.9
20260505225619 70 182 1.0 7.0 0.00 0.00 0.00 59 1006.0
20260505225050 71 98 0.0 2.0 0.00 0.00 0.00 59 1006.0
20260505224543 71 181 0.0 3.0 0.00 0.00 0.00 58 1005.8
20260505224055 71 115 0.0 3.0 0.00 0.00 0.00 58 1005.8
20260505223547 71 159 0.0 3.0 0.00 0.00 0.00 58 1005.8
20260505223058 71 140 0.0 3.0 0.00 0.00 0.00 57 1005.8
20260505222613 72 340 0.0 2.0 0.00 0.00 0.00 57 1005.7
20260505222044 73 151 0.0 1.0 0.00 0.00 0.00 57 1005.8
20260505221557 73 331 0.0 2.0 0.00 0.00 0.00 57 1005.9
20260505221051 73 130 0.0 3.0 0.00 0.00 0.00 56 1005.9
20260505220602 73 250 0.0 3.0 0.00 0.00 0.00 56 1006.0
20260505220055 73 138 0.0 5.0 0.00 0.00 0.00 56 1005.9
20260505215545 73 98 0.0 5.0 0.00 0.00 0.00 56 1005.8
20260505215058 74 136 0.0 4.0 0.00 0.00 0.00 56 1005.8
20260505214549 74 92 0.0 4.0 0.00 0.00 0.00 57 1005.7
20260505214039 74 65 0.0 5.0 0.00 0.00 0.00 56 1005.8
20260505213552 74 185 0.0 5.0 0.00 0.00 0.00 55 1005.6
20260505213042 74 355 0.0 4.0 0.00 0.00 0.00 56 1005.7
20260505212555 74 89 0.0 4.0 0.00 0.00 0.00 55 1005.6
20260505212046 75 147 0.0 2.0 0.00 0.00 0.00 55 1005.6
20260505211539 75 111 0.0 2.0 0.00 0.00 0.00 56 1005.6
20260505211054 75 44 0.0 2.0 0.00 0.00 0.00 56 1005.6
20260505210545 75 59 0.0 3.0 0.00 0.00 0.00 55 1005.5
20260505210058 75 164 1.0 5.0 0.00 0.00 0.00 54 1005.4
20260505205549 75 182 0.0 5.0 0.00 0.00 0.00 55 1005.4
20260505205041 75 200 0.0 5.0 0.00 0.00 0.00 55 1005.4
20260505204550 75 175 0.0 5.0 0.00 0.00 0.00 55 1005.7
20260505204101 75 238 0.0 1.0 0.00 0.00 0.00 55 1005.7
20260505203613 75 97 0.0 2.0 0.00 0.00 0.00 54 1005.7
20260505203105 75 117 0.0 2.0 0.00 0.00 0.00 54 1005.7
20260505202618 76 155 0.0 2.0 0.00 0.00 0.00 55 1005.7
20260505202047 76 109 0.0 8.0 0.00 0.00 0.00 54 1005.7
20260505201539 76 148 0.0 8.0 0.00 0.00 0.00 53 1005.7
20260505201051 77 261 0.0 3.0 0.00 0.00 0.00 53 1005.8
20260505200605 76 179 0.0 3.0 0.00 0.00 0.00 54 1005.8
20260505200118 76 163 0.0 4.0 0.00 0.00 0.00 53 1005.7
20260505195549 77 107 0.0 7.0 0.00 0.00 0.00 52 1005.8
20260505195040 77 61 0.0 7.0 0.00 0.00 0.00 54 1005.9
20260505194552 76 193 0.0 8.0 0.00 0.00 0.00 53 1006.0
20260505194045 77 117 0.0 8.0 0.00 0.00 0.00 52 1006.0
20260505193620 77 75 0.0 5.0 0.00 0.00 0.00 53 1006.1
20260505193050 77 19 0.0 5.0 0.00 0.00 0.00 53 1006.0
20260505192540 77 220 0.0 3.0 0.00 0.00 0.00 53 1006.0
20260505192048 77 134 0.0 5.0 0.00 0.00 0.00 53 1006.0
20260505191539 77 191 0.0 5.0 0.00 0.00 0.00 52 1006.1
20260505191053 78 81 0.0 5.0 0.00 0.00 0.00 51 1006.1
20260505190543 79 109 1.0 5.0 0.00 0.00 0.00 50 1006.2
20260505190118 79 44 0.0 3.0 0.00 0.00 0.00 50 1006.2
20260505185549 79 142 0.0 5.0 0.00 0.00 0.00 51 1006.4
20260505185101 79 136 0.0 5.0 0.00 0.00 0.00 50 1006.4
20260505184612 79 238 0.0 7.0 0.00 0.00 0.00 50 1006.4
20260505184045 80 140 0.0 7.0 0.00 0.00 0.00 50 1006.4
20260505183556 80 108 0.0 6.0 0.00 0.00 0.00 47 1006.5
20260505183049 80 96 0.0 3.0 0.00 0.00 0.00 49 1006.5
20260505182601 80 102 0.0 3.0 0.00 0.00 0.00 47 1006.6
20260505182114 79 109 0.0 11.0 0.00 0.00 0.00 47 1006.5
20260505181546 79 272 0.0 11.0 0.00 0.00 0.00 49 1006.6
20260505181100 78 268 0.0 5.0 0.00 0.00 0.00 48 1006.7
20260505180551 79 117 0.0 4.0 0.00 0.00 0.00 49 1006.7
20260505180042 78 159 0.0 10.0 0.00 0.00 0.00 50 1006.7
20260505175615 78 103 0.0 10.0 0.00 0.00 0.00 49 1006.8
20260505175045 79 232 0.0 7.0 0.00 0.00 0.00 49 1006.9
20260505174552 78 211 1.0 7.0 0.00 0.00 0.00 49 1006.7
20260505174041 78 60 0.0 6.0 0.00 0.00 0.00 48 1006.7
20260505173555 79 319 1.0 4.0 0.00 0.00 0.00 48 1006.7
20260505173046 79 190 0.0 0.0 0.00 0.00 0.00 49 1006.8
20260505172559 79 279 0.0 0.0 0.00 0.00 0.00 49 1006.9
20260505172111 78 217 0.0 4.0 0.00 0.00 0.00 51 1006.9
20260505171543 78 244 0.0 4.0 0.00 0.00 0.00 49 1006.9
20260505171056 78 161 0.0 4.0 0.00 0.00 0.00 50 1007.0
20260505170547 77 242 0.0 6.0 0.00 0.00 0.00 49 1007.0
20260505170100 78 135 0.0 6.0 0.00 0.00 0.00 48 1007.1
20260505165551 78 153 0.0 3.0 0.00 0.00 0.00 50 1007.1
20260505165042 77 332 0.0 3.0 0.00 0.00 0.00 50 1007.2
20260505164616 77 206 0.0 3.0 0.00 0.00 0.00 50 1007.2
20260505164046 77 200 0.0 3.0 0.00 0.00 0.00 52 1007.3
20260505163600 77 206 0.0 3.0 0.00 0.00 0.00 51 1007.3
20260505163050 76 98 0.0 3.0 0.00 0.00 0.00 54 1007.5
20260505162544 76 5 0.0 3.0 0.00 0.00 0.00 52 1007.7
20260505162056 76 296 0.0 7.0 0.00 0.00 0.00 55 1007.8
20260505161548 75 182 1.0 7.0 0.00 0.00 0.00 53 1007.8
20260505161059 76 309 0.0 3.0 0.00 0.00 0.00 54 1007.8
20260505160550 75 190 0.0 7.0 0.00 0.00 0.00 54 1007.9
20260505153047 74 319 1.0 6.0 0.00 0.00 0.00 54 1008.1
20260505152559 74 209 0.0 2.0 0.00 0.00 0.00 57 1008.1
20260505152053 74 279 0.0 3.0 0.00 0.00 0.00 55 1008.2
20260505151543 73 270 0.0 3.0 0.00 0.00 0.00 56 1008.3
20260505151057 73 155 0.0 3.0 0.00 0.00 0.00 57 1008.3
20260505150547 73 119 0.0 2.0 0.00 0.00 0.00 57 1008.4
20260505140550 67 181 0.0 2.0 0.00 0.00 0.00 70 1008.5